Zurück zum Katalog

COSMOS 2251 DEB

AktivLEO
NORAD 34317·DEBRIS·🇷🇺 Russia

Gestartet Jun 16, 1993 von Plesetsk Cosmodrome

Loading…

Nächste Überflüge (nächste 24 Stunden)

TLE

AktuellSource: Space-Track

Epoche: Sep 14, 2026, 21:28 UTC

1 34317U 93036NP  26257.89505192  .00000500  00000-0  43640-3 0  9995
2 34317  73.9233 300.9865 0336804 238.6724 305.8805 13.65444290873885

Verfolge COSMOS 2251 DEB in Echtzeit mit AllMySat

Download on the App Store